Darstellungsparameter: Aktuell verwendete Einstellungen:
Skalierung der Graphiken ... ?
xyx+y,   Skalierungsfaktor:      Skalierung: Modus: x, Faktor: 1
Darstellungszeitraum ... ?
Vom - - bis: - -   Zeitraum: 03.01.2020 - 23.01.2020
Min/Max/Avg-Anzeige ... ?
Zeige MMA aktuell
Zeige MMA Monat
Zeige MMA alles
Zeige --A aktuell
Zeige --A Monat
Zeige --A alles
Keine MMA-Anzeige
MMA:
Average (ber die Originaldaten)
MMA-Basis: 03.01.2020 - 23.01.2020
Quicknavigation für Darstellung... ?
Tage:      1T, 2T, 3T, 5T -1T -2T -3T -5T +1T +2T +3T +5T
Wochen: 1W, 2W, 3W -1W -2W -3W +1W +2W +3W
Monate: 1M, 3M, 6M -1M -3M -6M +1M +3M +6M
Jahre:    1J, 3J, 5J, 10J -1J -3J -5J -10J +1J +3J +5J +10J
Nutze für die Darstellung ... ?
Originaldaten oder ...
Mittelwerte Minima Maxima auf...
Stundenbasis Tagesbasis Wochenbasis
Monatsbasis Jahresbasis      Datenbasis: Mittelwerte auf Stundenbasis
Darstellen als:
Statistik (Auto) Statistik J:M      Darstellung:
Zur Graphik,    zurück zur Übersicht aller Sensoren.
 
Tabellarische Datenbersicht: ?
 
Sensor: Nr:Datum:Temp:Abs-Feuchte:Windchill:Wind:
Aussen-T/F 1 03-01-2020 00:00:00 3.81667 C 6.03 g/m*3 3.82 C 0 km/h
2 03-01-2020 01:00:00 4.24167 C 6.2 g/m*3 4.24 C 0 km/h
3 03-01-2020 02:00:00 4.53333 C 6.32 g/m*3 4.53 C 0 km/h
4 03-01-2020 03:00:00 4.76667 C 6.48 g/m*3 4.77 C 0 km/h
5 03-01-2020 04:00:00 4.86667 C 6.53 g/m*3 4.87 C 0.66667 km/h
6 03-01-2020 05:00:00 5.08333 C 6.62 g/m*3 5.08 C 1.33333 km/h
7 03-01-2020 06:00:00 5.425 C 6.73 g/m*3 5.43 C 3.075 km/h
8 03-01-2020 07:00:00 7.875 C 7.54 g/m*3 5.73 C 12.08333 km/h
9 03-01-2020 08:00:00 8.34167 C 7.45 g/m*3 6.96 C 8.45833 km/h
10 03-01-2020 09:00:00 8.675 C 7.43 g/m*3 7.01 C 10.23333 km/h
11 03-01-2020 10:00:00 8.91667 C 7.42 g/m*3 6.41 C 16.36667 km/h
12 03-01-2020 11:00:00 8.99167 C 7.49 g/m*3 5.86 C 22.51667 km/h
13 03-01-2020 12:00:00 8.89167 C 7.51 g/m*3 5.91 C 20.64167 km/h
14 03-01-2020 13:00:00 8.91667 C 7.63 g/m*3 5.99 C 20.23333 km/h
15 03-01-2020 14:00:00 8.93333 C 7.75 g/m*3 6.72 C 14.1 km/h
16 03-01-2020 15:00:00 9.29167 C 7.94 g/m*3 7.18 C 13.96667 km/h
17 03-01-2020 16:00:00 9.38333 C 8.03 g/m*3 7.07 C 15.7 km/h
18 03-01-2020 17:00:00 9.29167 C 8.08 g/m*3 6.99 C 15.43333 km/h
19 03-01-2020 18:00:00 9.56667 C 8.23 g/m*3 7.34 C 15.3 km/h
20 03-01-2020 19:00:00 9.60833 C 8.33 g/m*3 7.91 C 11.56667 km/h
21 03-01-2020 20:00:00 9.58333 C 8.43 g/m*3 8.26 C 9.29167 km/h
22 03-01-2020 21:00:00 8.56667 C 7.91 g/m*3 6.04 C 15.83333 km/h
23 03-01-2020 22:00:00 7.21667 C 7.15 g/m*3 4.71 C 13.425 km/h
24 03-01-2020 23:00:00 6.68333 C 6.91 g/m*3 5.26 C 7.4 km/h
25 04-01-2020 00:00:00 6.34167 C 6.83 g/m*3 6.34 C 4.55 km/h
Sensor: Nr:Datum:Temp:Abs-Feuchte:Windchill:Wind:
Aussen-T/F 26 04-01-2020 01:00:00 5.70833 C 6.52 g/m*3 5.71 C 2.26667 km/h
27 04-01-2020 02:00:00 4.70833 C 6.13 g/m*3 4.71 C 2.675 km/h
28 04-01-2020 03:00:00 4.41667 C 6.1 g/m*3 4.42 C 2.13333 km/h
29 04-01-2020 04:00:00 4.15 C 5.95 g/m*3 4.15 C 2.66667 km/h
30 04-01-2020 05:00:00 3.30833 C 5.65 g/m*3 3.31 C 2 km/h
31 04-01-2020 06:00:00 2.90833 C 5.55 g/m*3 1.26 C 6.16667 km/h
32 04-01-2020 07:00:00 2.93333 C 5.5 g/m*3 2.93 C 4.675 km/h
33 04-01-2020 08:00:00 2.26667 C 5.3 g/m*3 2.27 C 2.26667 km/h
34 04-01-2020 09:00:00 2.075 C 5.29 g/m*3 2.08 C 2.13333 km/h
35 04-01-2020 10:00:00 3.32857 C 5.73 g/m*3 1.73 C 6.2 km/h
36 04-01-2020 11:00:00 5.73333 C 6.23 g/m*3 3.73 C 9.125 km/h
37 04-01-2020 12:00:00 6.48333 C 6.39 g/m*3 4.41 C 10.08333 km/h
38 04-01-2020 13:00:00 7.11667 C 6.55 g/m*3 4.72 C 12.63333 km/h
39 04-01-2020 14:00:00 7.48333 C 6.58 g/m*3 5.21 C 12.36667 km/h
40 04-01-2020 15:00:00 7.41667 C 6.6 g/m*3 5.63 C 9.55833 km/h
41 04-01-2020 16:00:00 7.25833 C 6.54 g/m*3 5.62 C 8.74167 km/h
42 04-01-2020 17:00:00 7.175 C 6.49 g/m*3 5.32 C 9.675 km/h
43 04-01-2020 18:00:00 7.08333 C 6.47 g/m*3 5.08 C 10.36667 km/h
44 04-01-2020 19:00:00 6.96667 C 6.53 g/m*3 5.22 C 8.99167 km/h
45 04-01-2020 20:00:00 6.54167 C 6.57 g/m*3 5.33 C 6.56667 km/h
46 04-01-2020 21:00:00 6.475 C 6.78 g/m*3 5.37 C 6.15833 km/h
47 04-01-2020 22:00:00 6.125 C 6.86 g/m*3 5.24 C 5.34167 km/h
48 04-01-2020 23:00:00 6.13333 C 6.83 g/m*3 5.25 C 5.34167 km/h
49 05-01-2020 00:00:00 6.14167 C 6.81 g/m*3 6.14 C 3.6 km/h
50 05-01-2020 01:00:00 5.9 C 6.76 g/m*3 5.9 C 3.2 km/h
Sensor: Nr:Datum:Temp:Abs-Feuchte:Windchill:Wind:
Aussen-T/F 51 05-01-2020 02:00:00 5.625 C 6.72 g/m*3 5.63 C 1.86667 km/h
52 05-01-2020 03:00:00 5.35 C 6.61 g/m*3 5.35 C 0.93333 km/h
53 05-01-2020 04:00:00 5.26667 C 6.64 g/m*3 5.27 C 0.93333 km/h
54 05-01-2020 05:00:00 5.31667 C 6.66 g/m*3 5.32 C 0.53333 km/h
55 05-01-2020 06:00:00 5.4 C 6.7 g/m*3 5.4 C 0.93333 km/h
56 05-01-2020 07:00:00 5.36667 C 6.68 g/m*3 5.37 C 0.26667 km/h
57 05-01-2020 08:00:00 5.19 C 6.61 g/m*3 5.19 C 0.64 km/h
58 05-01-2020 09:00:00 5.33 C 6.67 g/m*3 5.33 C 4.8 km/h
59 05-01-2020 10:00:00 5.8 C 6.82 g/m*3 4.68 C 5.88333 km/h
60 05-01-2020 11:00:00 6.25833 C 6.9 g/m*3 5.34 C 5.49167 km/h
61 05-01-2020 12:00:00 6.6 C 6.96 g/m*3 5.77 C 5.35 km/h
62 05-01-2020 13:00:00 6.93333 C 7.05 g/m*3 6.2 C 5.20833 km/h
63 05-01-2020 14:00:00 7.20833 C 7.08 g/m*3 7.21 C 2.8 km/h
64 05-01-2020 15:00:00 7.20833 C 7.11 g/m*3 7.21 C 0.8 km/h
65 05-01-2020 16:00:00 6.79167 C 7.02 g/m*3 6.79 C 0 km/h
66 05-01-2020 17:00:00 6.24167 C 6.77 g/m*3 6.24 C 1.73333 km/h
67 05-01-2020 18:00:00 6.16667 C 6.63 g/m*3 6.17 C 2.26667 km/h
68 05-01-2020 19:00:00 6.11667 C 6.56 g/m*3 6.12 C 0.4 km/h
69 05-01-2020 20:00:00 5.90833 C 6.51 g/m*3 5.91 C 0.4 km/h
70 05-01-2020 21:00:00 5.8 C 6.51 g/m*3 5.8 C 0 km/h
71 05-01-2020 22:00:00 5.58333 C 6.5 g/m*3 5.58 C 0 km/h
72 05-01-2020 23:00:00 5.30833 C 6.43 g/m*3 5.31 C 0 km/h
73 06-01-2020 00:00:00 5.11667 C 6.3 g/m*3 5.12 C 0 km/h
74 06-01-2020 01:00:00 4.98333 C 6.2 g/m*3 4.98 C 0 km/h
75 06-01-2020 02:00:00 4.84167 C 6.12 g/m*3 4.84 C 0 km/h
Sensor: Nr:Datum:Temp:Abs-Feuchte:Windchill:Wind:
Aussen-T/F 76 06-01-2020 03:00:00 4.71667 C 6.08 g/m*3 4.72 C 0 km/h
77 06-01-2020 04:00:00 4.61667 C 6.04 g/m*3 4.62 C 0.13333 km/h
78 06-01-2020 05:00:00 4.4 C 6 g/m*3 4.4 C 0 km/h
79 06-01-2020 06:00:00 4.15833 C 5.92 g/m*3 4.16 C 0 km/h
80 06-01-2020 07:00:00 3.76667 C 5.78 g/m*3 3.77 C 0 km/h
81 06-01-2020 08:00:00 3.36667 C 5.65 g/m*3 3.37 C 0 km/h
82 06-01-2020 09:00:00 3.475 C 5.69 g/m*3 3.48 C 0 km/h
83 06-01-2020 10:00:00 3.73333 C 5.7 g/m*3 3.73 C 0 km/h
84 06-01-2020 11:00:00 2.975 C 5.48 g/m*3 2.98 C 1.06667 km/h
85 06-01-2020 12:00:00 3.10833 C 5.57 g/m*3 3.11 C 1.2 km/h
86 06-01-2020 13:00:00 3.2 C 5.65 g/m*3 3.2 C 0.93333 km/h
87 06-01-2020 14:00:00 3.26667 C 5.69 g/m*3 3.27 C 0.53333 km/h
88 06-01-2020 15:00:00 3.4 C 5.74 g/m*3 3.4 C 2.53333 km/h
89 06-01-2020 16:00:00 2.925 C 5.56 g/m*3 2.93 C 1.73333 km/h
90 06-01-2020 17:00:00 1.85833 C 5.19 g/m*3 1.86 C 0.66667 km/h
91 06-01-2020 18:00:00 1.01667 C 4.92 g/m*3 1.02 C 0.93333 km/h
92 06-01-2020 19:00:00 0.39167 C 4.73 g/m*3 0.39 C 1.2 km/h
93 06-01-2020 20:00:00 -0.125 C 4.58 g/m*3 -0.13 C 0.53333 km/h
94 06-01-2020 21:00:00 -0.11667 C 4.61 g/m*3 -0.12 C 0 km/h
95 06-01-2020 22:00:00 0.98333 C 5 g/m*3 0.98 C 2.40833 km/h
96 06-01-2020 23:00:00 1.59167 C 5.19 g/m*3 1.59 C 1.06667 km/h
97 07-01-2020 00:00:00 2.34167 C 5.46 g/m*3 2.34 C 4.55 km/h
98 07-01-2020 01:00:00 3.15 C 5.69 g/m*3 1.95 C 5.09167 km/h
99 07-01-2020 02:00:00 3.71667 C 5.83 g/m*3 1.65 C 7.925 km/h
100 07-01-2020 03:00:00 3.7 C 5.86 g/m*3 1.66 C 7.8 km/h
Sensor: Nr:Datum:Temp:Abs-Feuchte:Windchill:Wind:
Aussen-T/F 101 07-01-2020 04:00:00 3.93333 C 5.96 g/m*3 1.55 C 9.275 km/h
102 07-01-2020 05:00:00 4.26667 C 6.08 g/m*3 1.76 C 10.08333 km/h
103 07-01-2020 06:00:00 4.6 C 6.21 g/m*3 2.07 C 10.5 km/h
104 07-01-2020 07:00:00 5 C 6.32 g/m*3 2.82 C 9.28333 km/h
105 07-01-2020 08:00:00 4.925 C 6.29 g/m*3 3.25 C 7.25 km/h
106 07-01-2020 09:00:00 4.725 C 6.31 g/m*3 3.54 C 5.625 km/h
107 07-01-2020 10:00:00 5.68333 C 6.66 g/m*3 4.18 C 7.10833 km/h
108 07-01-2020 11:00:00 6.6 C 6.95 g/m*3 4.75 C 9.15 km/h
109 07-01-2020 12:00:00 7.1 C 6.96 g/m*3 4.67 C 12.76667 km/h
110 07-01-2020 13:00:00 7.28333 C 6.98 g/m*3 5.35 C 10.20833 km/h
111 07-01-2020 14:00:00 7.38333 C 6.92 g/m*3 5.83 C 8.46667 km/h
112 07-01-2020 15:00:00 6.925 C 6.75 g/m*3 6.15 C 5.34167 km/h
113 07-01-2020 16:00:00 5.84167 C 6.46 g/m*3 5.84 C 2.13333 km/h
114 07-01-2020 17:00:00 4.54167 C 6.12 g/m*3 4.54 C 3.06667 km/h
115 07-01-2020 18:00:00 4.025 C 6 g/m*3 4.03 C 2.8 km/h
116 07-01-2020 19:00:00 3.65833 C 5.9 g/m*3 3.66 C 2.66667 km/h
117 07-01-2020 20:00:00 4.20833 C 6.16 g/m*3 4.21 C 4.55 km/h
118 07-01-2020 21:00:00 5.49167 C 6.5 g/m*3 3.66 C 8.2 km/h
119 07-01-2020 22:00:00 6.20833 C 6.52 g/m*3 5.1 C 6.04167 km/h
120 07-01-2020 23:00:00 6.56667 C 6.51 g/m*3 6.57 C 4.425 km/h
121 08-01-2020 00:00:00 6.26667 C 6.38 g/m*3 6.27 C 2.40833 km/h
122 08-01-2020 01:00:00 6.13333 C 6.3 g/m*3 6.13 C 2.8 km/h
123 08-01-2020 02:00:00 5.85833 C 6.32 g/m*3 5.86 C 2.53333 km/h
124 08-01-2020 03:00:00 6.45833 C 6.65 g/m*3 6.46 C 4.81667 km/h
125 08-01-2020 04:00:00 6.575 C 6.74 g/m*3 6.58 C 1.86667 km/h
Sensor: Nr:Datum:Temp:Abs-Feuchte:Windchill:Wind:
Aussen-T/F 126 08-01-2020 05:00:00 6.44167 C 6.82 g/m*3 6.44 C 0.13333 km/h
127 08-01-2020 06:00:00 6.7 C 7.05 g/m*3 6.7 C 2.13333 km/h
128 08-01-2020 07:00:00 7.04167 C 7.33 g/m*3 7.04 C 1.46667 km/h
129 08-01-2020 08:00:00 7.175 C 7.46 g/m*3 7.18 C 4.29167 km/h
130 08-01-2020 09:00:00 7.475 C 7.67 g/m*3 6.86 C 5.1 km/h
131 08-01-2020 10:00:00 7.85833 C 7.82 g/m*3 6.01 C 10.35833 km/h
132 08-01-2020 11:00:00 8.24167 C 7.9 g/m*3 6.9 C 8.20833 km/h
133 08-01-2020 12:00:00 8.375 C 7.96 g/m*3 8.38 C 2.26667 km/h
134 08-01-2020 13:00:00 9.05833 C 8.27 g/m*3 9.06 C 4.68333 km/h
135 08-01-2020 14:00:00 9.36667 C 8.39 g/m*3 9.37 C 3.075 km/h
136 08-01-2020 15:00:00 9.73333 C 8.51 g/m*3 8.68 C 8.05833 km/h
137 08-01-2020 16:00:00 9.78333 C 8.57 g/m*3 9.78 C 4.55 km/h
138 08-01-2020 17:00:00 9.8 C 8.63 g/m*3 8.88 C 7.51667 km/h
139 08-01-2020 18:00:00 9.71667 C 8.64 g/m*3 9.1 C 6.18333 km/h
140 08-01-2020 19:00:00 9.95833 C 8.81 g/m*3 9.56 C 5.49167 km/h
141 08-01-2020 20:00:00 10.175 C 8.93 g/m*3 9.6 C 6.3 km/h
142 08-01-2020 21:00:00 10.3 C 9 g/m*3 9.78 C 6.15833 km/h
143 08-01-2020 22:00:00 10.20833 C 8.99 g/m*3 10.21 C 4.41667 km/h
144 08-01-2020 23:00:00 10.1 C 8.98 g/m*3 10.1 C 1.6 km/h
145 09-01-2020 00:00:00 9.89167 C 8.88 g/m*3 9.89 C 0 km/h
146 09-01-2020 01:00:00 9.78333 C 8.9 g/m*3 9.78 C 0 km/h
147 09-01-2020 02:00:00 9.59167 C 8.79 g/m*3 9.59 C 1.46667 km/h
148 09-01-2020 03:00:00 9.425 C 8.7 g/m*3 9.43 C 1.6 km/h
149 09-01-2020 04:00:00 9.23333 C 8.62 g/m*3 9.23 C 0.13333 km/h
150 09-01-2020 05:00:00 9.25 C 8.69 g/m*3 9.25 C 0.26667 km/h
Sensor: Nr:Datum:Temp:Abs-Feuchte:Windchill:Wind:
Aussen-T/F 151 09-01-2020 06:00:00 9.21667 C 8.67 g/m*3 9.22 C 0.26667 km/h
152 09-01-2020 07:00:00 9.48333 C 8.82 g/m*3 9.48 C 1.2 km/h
153 09-01-2020 08:00:00 9.79167 C 9.04 g/m*3 9.79 C 1.475 km/h
154 09-01-2020 09:00:00 10.53333 C 9.49 g/m*3 10.53 C 4.28333 km/h
155 09-01-2020 10:00:00 11.11667 C 9.71 g/m*3 11.12 C 5.61667 km/h
156 09-01-2020 11:00:00 12.125 C 9.98 g/m*3 12.13 C 10.48333 km/h
157 09-01-2020 12:00:00 12.95833 C 10.08 g/m*3 12.96 C 13.83333 km/h
158 09-01-2020 13:00:00 13.325 C 10.1 g/m*3 13.33 C 15.43333 km/h
159 09-01-2020 14:00:00 13.11667 C 10.03 g/m*3 13.12 C 9.95 km/h
160 09-01-2020 15:00:00 12.925 C 9.96 g/m*3 12.93 C 9.81667 km/h
161 09-01-2020 16:00:00 12.79167 C 9.85 g/m*3 12.79 C 6.43333 km/h
162 09-01-2020 17:00:00 12.59167 C 9.67 g/m*3 12.59 C 5.08333 km/h
163 09-01-2020 18:00:00 12.05833 C 9.47 g/m*3 12.06 C 4.68333 km/h
164 09-01-2020 19:00:00 11.73333 C 9.24 g/m*3 11.73 C 4.01667 km/h
165 09-01-2020 20:00:00 10.9 C 9.07 g/m*3 10.9 C 3.61667 km/h
166 09-01-2020 21:00:00 10.21667 C 8.83 g/m*3 10.22 C 2.94167 km/h
167 09-01-2020 22:00:00 9.875 C 8.72 g/m*3 9.88 C 1.2 km/h
168 09-01-2020 23:00:00 10.275 C 8.6 g/m*3 9.82 C 5.89167 km/h
169 10-01-2020 00:00:00 10.5 C 8.57 g/m*3 10.5 C 3.625 km/h
170 10-01-2020 01:00:00 10.28333 C 8.51 g/m*3 10.28 C 3.875 km/h
171 10-01-2020 02:00:00 10.23333 C 8.46 g/m*3 9.32 C 7.79167 km/h
172 10-01-2020 03:00:00 10.29167 C 8.36 g/m*3 9.4 C 7.775 km/h
173 10-01-2020 04:00:00 10.325 C 8.01 g/m*3 8.88 C 10.89167 km/h
174 10-01-2020 05:00:00 10.025 C 7.85 g/m*3 9.22 C 7.13333 km/h
175 10-01-2020 06:00:00 9.55 C 8.02 g/m*3 9.55 C 2 km/h
Sensor: Nr:Datum:Temp:Abs-Feuchte:Windchill:Wind:
Aussen-T/F 176 10-01-2020 07:00:00 8.71667 C 8.05 g/m*3 8.72 C 0.26667 km/h
177 10-01-2020 08:00:00 8.43333 C 7.98 g/m*3 8.43 C 0.26667 km/h
178 10-01-2020 09:00:00 8.99167 C 8.03 g/m*3 8.99 C 2.81667 km/h
179 10-01-2020 10:00:00 9.675 C 8.11 g/m*3 9.68 C 2.94167 km/h
180 10-01-2020 11:00:00 10.39167 C 8.28 g/m*3 9.09 C 10.075 km/h
181 10-01-2020 12:00:00 10.70833 C 8.47 g/m*3 8.82 C 14.76667 km/h
182 10-01-2020 13:00:00 9.41667 C 8.18 g/m*3 9.42 C 4.28333 km/h
183 10-01-2020 14:00:00 9.1 C 7.86 g/m*3 7.91 C 8.19167 km/h
184 10-01-2020 15:00:00 9.15833 C 7.53 g/m*3 7.79 C 9.13333 km/h
185 10-01-2020 16:00:00 8.51667 C 7.51 g/m*3 6.68 C 11.01667 km/h
186 10-01-2020 17:00:00 7.75 C 7.23 g/m*3 5.95 C 9.95833 km/h
187 10-01-2020 18:00:00 7.7 C 7.16 g/m*3 6.32 C 7.91667 km/h
188 10-01-2020 19:00:00 7.225 C 7.1 g/m*3 5.61 C 8.59167 km/h
189 10-01-2020 20:00:00 6.9 C 6.92 g/m*3 5.98 C 5.75833 km/h
190 10-01-2020 21:00:00 6.66667 C 6.72 g/m*3 6.67 C 2.675 km/h
191 10-01-2020 22:00:00 6.66667 C 6.65 g/m*3 6.67 C 4.68333 km/h
192 10-01-2020 23:00:00 6.775 C 6.63 g/m*3 5.84 C 5.75 km/h
193 11-01-2020 00:00:00 6.20833 C 6.41 g/m*3 6.21 C 3.2 km/h
194 11-01-2020 01:00:00 4.93333 C 6.14 g/m*3 4.93 C 0.26667 km/h
195 11-01-2020 02:00:00 4.4 C 5.99 g/m*3 4.4 C 0.66667 km/h
196 11-01-2020 03:00:00 3.59167 C 5.79 g/m*3 3.59 C 1.06667 km/h
197 11-01-2020 04:00:00 3.80833 C 5.96 g/m*3 3.81 C 0.8 km/h
198 11-01-2020 05:00:00 3.725 C 5.91 g/m*3 3.73 C 1.46667 km/h
199 11-01-2020 06:00:00 3.59167 C 5.88 g/m*3 3.59 C 3.34167 km/h
200 11-01-2020 07:00:00 3.31667 C 5.73 g/m*3 3.32 C 2.66667 km/h
Sensor: Nr:Datum:Temp:Abs-Feuchte:Windchill:Wind:
Aussen-T/F 201 11-01-2020 08:00:00 1.94167 C 5.21 g/m*3 1.94 C 1.74167 km/h
202 11-01-2020 09:00:00 2.15833 C 5.36 g/m*3 0.77 C 5.20833 km/h
203 11-01-2020 10:00:00 2.85 C 5.59 g/m*3 2.85 C 4.55833 km/h
204 11-01-2020 11:00:00 3.94167 C 5.95 g/m*3 3.94 C 0.8 km/h
205 11-01-2020 12:00:00 5.89167 C 6.19 g/m*3 5.89 C 3.2 km/h
206 11-01-2020 13:00:00 7.15833 C 5.92 g/m*3 5.3 C 9.66667 km/h
207 11-01-2020 14:00:00 7.075 C 5.87 g/m*3 5.62 C 7.78333 km/h
208 11-01-2020 15:00:00 6.925 C 5.93 g/m*3 6.93 C 3.60833 km/h
209 11-01-2020 16:00:00 6.76667 C 5.93 g/m*3 5.91 C 5.5 km/h
210 11-01-2020 17:00:00 6.26667 C 5.82 g/m*3 6.27 C 3.88333 km/h
211 11-01-2020 18:00:00 5.44167 C 5.75 g/m*3 5.44 C 1.33333 km/h
212 11-01-2020 19:00:00 3.95 C 5.57 g/m*3 3.95 C 2.26667 km/h
213 11-01-2020 20:00:00 3.19167 C 5.42 g/m*3 3.19 C 2.53333 km/h
214 11-01-2020 21:00:00 2.675 C 5.3 g/m*3 2.68 C 2.13333 km/h
215 11-01-2020 22:00:00 2.29167 C 5.23 g/m*3 2.29 C 0.8 km/h
216 11-01-2020 23:00:00 2.11667 C 5.18 g/m*3 2.12 C 1.34167 km/h
217 12-01-2020 00:00:00 1.95 C 5.15 g/m*3 1.95 C 2.93333 km/h
218 12-01-2020 01:00:00 1.99167 C 5.17 g/m*3 1.99 C 2.26667 km/h
219 12-01-2020 02:00:00 2.46667 C 5.31 g/m*3 2.47 C 2.4 km/h
220 12-01-2020 03:00:00 2.48333 C 5.28 g/m*3 2.48 C 2.53333 km/h
221 12-01-2020 04:00:00 2.59167 C 5.38 g/m*3 2.59 C 0.66667 km/h
222 12-01-2020 05:00:00 3.73333 C 5.63 g/m*3 3.73 C 2.80833 km/h
223 12-01-2020 06:00:00 4.275 C 5.65 g/m*3 2.34 C 7.78333 km/h
224 12-01-2020 07:00:00 4.325 C 5.64 g/m*3 1.55 C 11.425 km/h
225 12-01-2020 08:00:00 4.425 C 5.61 g/m*3 1.47 C 12.49167 km/h
Sensor: Nr:Datum:Temp:Abs-Feuchte:Windchill:Wind:
Aussen-T/F 226 12-01-2020 09:00:00 4.825 C 5.69 g/m*3 1.55 C 14.9 km/h
227 12-01-2020 10:00:00 5.325 C 5.8 g/m*3 2.42 C 13.3 km/h
228 12-01-2020 11:00:00 5.7 C 5.87 g/m*3 2.95 C 12.88333 km/h
229 12-01-2020 12:00:00 6.26667 C 6.03 g/m*3 3.19 C 15.83333 km/h
230 12-01-2020 13:00:00 6.75833 C 6.24 g/m*3 4.19 C 13.16667 km/h
231 12-01-2020 14:00:00 7.18333 C 6.45 g/m*3 4.49 C 14.63333 km/h
232 12-01-2020 15:00:00 7.18333 C 6.57 g/m*3 4.07 C 17.84167 km/h
233 12-01-2020 16:00:00 6.88333 C 6.56 g/m*3 3.48 C 19.7 km/h
234 12-01-2020 17:00:00 6.525 C 6.57 g/m*3 2.92 C 20.63333 km/h
235 12-01-2020 18:00:00 6.15833 C 6.51 g/m*3 3.35 C 13.83333 km/h
236 12-01-2020 19:00:00 6.16667 C 6.6 g/m*3 4.52 C 7.93333 km/h
237 12-01-2020 20:00:00 6.4 C 6.73 g/m*3 4.15 C 10.9 km/h
238 12-01-2020 21:00:00 6.65 C 6.89 g/m*3 4.36 C 11.41667 km/h
239 12-01-2020 22:00:00 6.80833 C 6.94 g/m*3 4.97 C 9.26667 km/h
240 12-01-2020 23:00:00 6.35 C 6.79 g/m*3 5.07 C 6.69167 km/h
241 13-01-2020 00:00:00 6.81667 C 6.97 g/m*3 4.78 C 10.225 km/h
242 13-01-2020 01:00:00 6.775 C 7.04 g/m*3 6.78 C 3.88333 km/h
243 13-01-2020 02:00:00 6.56667 C 7.07 g/m*3 6.57 C 3.73333 km/h
244 13-01-2020 03:00:00 6.03333 C 6.8 g/m*3 6.03 C 0.8 km/h
245 13-01-2020 04:00:00 4.80833 C 6.32 g/m*3 4.81 C 2.53333 km/h
246 13-01-2020 05:00:00 5.08333 C 6.54 g/m*3 5.08 C 1.33333 km/h
247 13-01-2020 06:00:00 5.28333 C 6.61 g/m*3 5.28 C 0.94167 km/h
248 13-01-2020 07:00:00 4.76667 C 6.36 g/m*3 4.77 C 2.675 km/h
249 13-01-2020 08:00:00 4.88333 C 6.43 g/m*3 4.88 C 1.2 km/h
250 13-01-2020 09:00:00 5.65833 C 6.74 g/m*3 5.66 C 3.06667 km/h
Sensor: Nr:Datum:Temp:Abs-Feuchte:Windchill:Wind:
Aussen-T/F 251 13-01-2020 10:00:00 6.63333 C 7.03 g/m*3 6.63 C 4.95 km/h
252 13-01-2020 11:00:00 7.65 C 7.27 g/m*3 7.06 C 5.075 km/h
253 13-01-2020 12:00:00 8.25833 C 7.38 g/m*3 8.26 C 2.66667 km/h
254 13-01-2020 13:00:00 8.15833 C 7.4 g/m*3 8.16 C 3.74167 km/h
255 13-01-2020 14:00:00 7.875 C 7.44 g/m*3 7.88 C 1.06667 km/h
256 13-01-2020 15:00:00 7.95833 C 7.2 g/m*3 7.96 C 2 km/h
257 13-01-2020 16:00:00 7.81667 C 7.04 g/m*3 7.82 C 1.33333 km/h
258 13-01-2020 17:00:00 7.14167 C 6.84 g/m*3 7.14 C 0.4 km/h
259 13-01-2020 18:00:00 6.35833 C 6.7 g/m*3 6.36 C 1.06667 km/h
260 13-01-2020 19:00:00 6.525 C 6.79 g/m*3 6.53 C 1.06667 km/h
261 13-01-2020 20:00:00 6.39167 C 6.79 g/m*3 6.39 C 0 km/h
262 13-01-2020 21:00:00 6.3 C 6.81 g/m*3 6.3 C 0 km/h
263 13-01-2020 22:00:00 6.425 C 6.94 g/m*3 6.43 C 0.66667 km/h
264 13-01-2020 23:00:00 6.84167 C 7.12 g/m*3 6.84 C 1.34167 km/h
265 14-01-2020 00:00:00 7.15833 C 7.28 g/m*3 7.16 C 1.33333 km/h
266 14-01-2020 01:00:00 6.76667 C 7.07 g/m*3 6.77 C 0.66667 km/h
267 14-01-2020 02:00:00 6.925 C 7.07 g/m*3 6.93 C 2.13333 km/h
268 14-01-2020 03:00:00 7.25 C 7.04 g/m*3 7.25 C 1.2 km/h
269 14-01-2020 04:00:00 7.53333 C 7.07 g/m*3 7.53 C 2.8 km/h
270 14-01-2020 05:00:00 8.18333 C 7.12 g/m*3 7.58 C 5.35 km/h
271 14-01-2020 06:00:00 8.175 C 6.97 g/m*3 8.18 C 4.425 km/h
272 14-01-2020 07:00:00 8.01667 C 6.85 g/m*3 8.02 C 4.68333 km/h
273 14-01-2020 08:00:00 8.46667 C 6.84 g/m*3 6.81 C 9.95833 km/h
274 14-01-2020 09:00:00 8.89167 C 7.05 g/m*3 7.22 C 10.49167 km/h
275 14-01-2020 10:00:00 9.48333 C 7.21 g/m*3 7.93 C 10.475 km/h
Sensor: Nr:Datum:Temp:Abs-Feuchte:Windchill:Wind:
Aussen-T/F 276 14-01-2020 11:00:00 9.84167 C 7.1 g/m*3 9.05 C 6.96667 km/h
277 14-01-2020 12:00:00 10.20833 C 6.98 g/m*3 9.44 C 7.10833 km/h
278 14-01-2020 13:00:00 10.7 C 7.21 g/m*3 10.7 C 3.88333 km/h
279 14-01-2020 14:00:00 11.95833 C 7.17 g/m*3 11.96 C 8.2 km/h
280 14-01-2020 15:00:00 12.11667 C 7.08 g/m*3 12.12 C 8.30833 km/h
281 14-01-2020 16:00:00 11.425 C 6.85 g/m*3 11.43 C 6.58333 km/h
282 14-01-2020 17:00:00 11.23333 C 6.84 g/m*3 11.23 C 10.075 km/h
283 14-01-2020 18:00:00 11.31667 C 7.23 g/m*3 11.32 C 9.25833 km/h
284 14-01-2020 19:00:00 11.46667 C 7.76 g/m*3 11.47 C 13.025 km/h
285 14-01-2020 20:00:00 11.475 C 7.61 g/m*3 11.48 C 13.96667 km/h
286 14-01-2020 21:00:00 11.95833 C 7.4 g/m*3 11.96 C 13.69167 km/h
287 14-01-2020 22:00:00 11.96667 C 7.52 g/m*3 11.97 C 6.96667 km/h
288 14-01-2020 23:00:00 12 C 7.74 g/m*3 12 C 8.875 km/h
289 15-01-2020 00:00:00 11.875 C 7.51 g/m*3 11.88 C 8.2 km/h
290 15-01-2020 01:00:00 11.54167 C 7.46 g/m*3 11.54 C 6.7 km/h
291 15-01-2020 02:00:00 10.95 C 7.65 g/m*3 10.73 C 5.35833 km/h
292 15-01-2020 03:00:00 10.48333 C 7.83 g/m*3 10.48 C 2.675 km/h
293 15-01-2020 04:00:00 9.68333 C 7.74 g/m*3 9.68 C 1.2 km/h
294 15-01-2020 05:00:00 9.69167 C 7.58 g/m*3 9.69 C 4.28333 km/h
295 15-01-2020 06:00:00 10.225 C 7.35 g/m*3 9.98 C 5.09167 km/h
296 15-01-2020 07:00:00 8.39167 C 6.9 g/m*3 8.39 C 1.2 km/h
297 15-01-2020 08:00:00 6.98333 C 6.68 g/m*3 6.98 C 0.66667 km/h
298 15-01-2020 09:00:00 7.49167 C 6.89 g/m*3 7.49 C 1.73333 km/h
299 15-01-2020 10:00:00 8.01667 C 7.12 g/m*3 8.02 C 1.73333 km/h
300 15-01-2020 11:00:00 9.96667 C 7.39 g/m*3 9.97 C 3.475 km/h
Sensor: Nr:Datum:Temp:Abs-Feuchte:Windchill:Wind:
Aussen-T/F 301 15-01-2020 12:00:00 11.725 C 7.43 g/m*3 11.73 C 4.95833 km/h
302 15-01-2020 13:00:00 12.575 C 7.48 g/m*3 12.58 C 7.25 km/h
303 15-01-2020 14:00:00 12.3 C 7.57 g/m*3 12.3 C 5.625 km/h
304 15-01-2020 15:00:00 13.20833 C 7.5 g/m*3 13.21 C 13.55 km/h
305 15-01-2020 16:00:00 13.09167 C 7.58 g/m*3 13.09 C 5.63333 km/h
306 15-01-2020 17:00:00 12.38333 C 7.69 g/m*3 12.38 C 3.20833 km/h
307 15-01-2020 18:00:00 12 C 7.67 g/m*3 12 C 3.075 km/h
308 15-01-2020 19:00:00 12.68333 C 7.77 g/m*3 12.68 C 7.375 km/h
309 15-01-2020 20:00:00 12.91667 C 7.95 g/m*3 12.92 C 13.16667 km/h
310 15-01-2020 21:00:00 12.66667 C 8.21 g/m*3 12.67 C 12.48333 km/h
311 15-01-2020 22:00:00 10.80833 C 8.69 g/m*3 10.81 C 2.8 km/h
312 15-01-2020 23:00:00 9.71667 C 8.46 g/m*3 9.72 C 4.26667 km/h
313 16-01-2020 00:00:00 9.25833 C 8.23 g/m*3 9.26 C 2.95833 km/h
314 16-01-2020 01:00:00 9.5 C 8.47 g/m*3 9.5 C 1.2 km/h
315 16-01-2020 02:00:00 9.35833 C 8.42 g/m*3 9.36 C 0.26667 km/h
316 16-01-2020 03:00:00 9.4 C 8.56 g/m*3 9.4 C 0.8 km/h
317 16-01-2020 04:00:00 9.275 C 8.52 g/m*3 9.28 C 0 km/h
318 16-01-2020 05:00:00 8.83333 C 8.32 g/m*3 8.83 C 0.26667 km/h
319 16-01-2020 06:00:00 8.20833 C 8.02 g/m*3 8.21 C 0.13333 km/h
320 16-01-2020 07:00:00 7.375 C 7.59 g/m*3 7.38 C 0 km/h
321 16-01-2020 08:00:00 7.00833 C 7.44 g/m*3 7.01 C 0 km/h
322 16-01-2020 09:00:00 6.24167 C 7.09 g/m*3 6.24 C 0 km/h
323 16-01-2020 10:00:00 7.1 C 7.57 g/m*3 7.1 C 0 km/h
324 16-01-2020 11:00:00 7.475 C 7.75 g/m*3 7.48 C 0 km/h
325 16-01-2020 12:00:00 7.28333 C 7.66 g/m*3 7.28 C 1.2 km/h
Sensor: Nr:Datum:Temp:Abs-Feuchte:Windchill:Wind:
Aussen-T/F 326 16-01-2020 13:00:00 8.19167 C 8.15 g/m*3 8.19 C 3.34167 km/h
327 16-01-2020 14:00:00 8.74167 C 8.41 g/m*3 8.74 C 2 km/h
328 16-01-2020 15:00:00 8.80833 C 8.32 g/m*3 8.81 C 2.8 km/h
329 16-01-2020 16:00:00 8.375 C 8.01 g/m*3 8.38 C 0.66667 km/h
330 16-01-2020 17:00:00 7.64167 C 7.67 g/m*3 7.64 C 3.73333 km/h
331 16-01-2020 18:00:00 7.09167 C 7.41 g/m*3 7.09 C 2.26667 km/h
332 16-01-2020 19:00:00 6.65 C 7.26 g/m*3 6.65 C 1.46667 km/h
333 16-01-2020 20:00:00 6.53333 C 7.22 g/m*3 6.53 C 2.26667 km/h
334 16-01-2020 21:00:00 6.23333 C 7.08 g/m*3 6.23 C 1.06667 km/h
335 16-01-2020 22:00:00 6.10833 C 7.02 g/m*3 6.11 C 2.4 km/h
336 16-01-2020 23:00:00 6.79167 C 7.26 g/m*3 6.79 C 4.675 km/h
337 17-01-2020 00:00:00 6.4 C 6.97 g/m*3 6.4 C 2.4 km/h
338 17-01-2020 01:00:00 5.7 C 6.71 g/m*3 5.7 C 1.06667 km/h
339 17-01-2020 02:00:00 5.41667 C 6.6 g/m*3 5.42 C 3.08333 km/h
340 17-01-2020 03:00:00 4.675 C 6.32 g/m*3 4.68 C 1.46667 km/h
341 17-01-2020 04:00:00 4.58333 C 6.35 g/m*3 4.58 C 1.06667 km/h
342 17-01-2020 05:00:00 3.86667 C 6.05 g/m*3 3.87 C 0 km/h
343 17-01-2020 06:00:00 3.10833 C 5.75 g/m*3 3.11 C 0 km/h
344 17-01-2020 07:00:00 2.54167 C 5.53 g/m*3 2.54 C 0 km/h
345 17-01-2020 08:00:00 2.84167 C 5.71 g/m*3 2.84 C 1.2 km/h
346 17-01-2020 09:00:00 3.20833 C 5.85 g/m*3 3.21 C 0.4 km/h
347 17-01-2020 10:00:00 4.05 C 6.19 g/m*3 4.05 C 0.26667 km/h
348 17-01-2020 11:00:00 5.11667 C 6.65 g/m*3 5.12 C 0.13333 km/h
349 17-01-2020 12:00:00 6.56667 C 7.29 g/m*3 6.57 C 0.66667 km/h
350 17-01-2020 13:00:00 8.19167 C 7.92 g/m*3 8.19 C 3.20833 km/h
Sensor: Nr:Datum:Temp:Abs-Feuchte:Windchill:Wind:
Aussen-T/F 351 17-01-2020 14:00:00 9.74167 C 8.27 g/m*3 9.2 C 5.9 km/h
352 17-01-2020 15:00:00 9.31667 C 8.24 g/m*3 9.32 C 4.14167 km/h
353 17-01-2020 16:00:00 8.85 C 8.1 g/m*3 8.85 C 3.875 km/h
354 17-01-2020 17:00:00 8.84167 C 8.09 g/m*3 7.55 C 8.45833 km/h
355 17-01-2020 18:00:00 8.825 C 7.94 g/m*3 7.5 C 8.59167 km/h
356 17-01-2020 19:00:00 7.48333 C 7.34 g/m*3 7.48 C 3.75 km/h
357 17-01-2020 20:00:00 7.275 C 7.35 g/m*3 7.28 C 4.29167 km/h
358 17-01-2020 21:00:00 7.61667 C 7.02 g/m*3 6.11 C 8.45 km/h
359 17-01-2020 22:00:00 6.05833 C 6.36 g/m*3 6.06 C 1.73333 km/h
360 17-01-2020 23:00:00 4.65 C 6.05 g/m*3 4.65 C 0.66667 km/h
361 18-01-2020 00:00:00 4.04167 C 5.94 g/m*3 4.04 C 1.35 km/h
362 18-01-2020 01:00:00 4.55833 C 6.16 g/m*3 4.56 C 1.86667 km/h
363 18-01-2020 02:00:00 4.475 C 6.1 g/m*3 4.47 C 2.275 km/h
364 18-01-2020 03:00:00 4.925 C 6.09 g/m*3 3.03 C 8.05833 km/h
365 18-01-2020 04:00:00 4.68333 C 5.94 g/m*3 2.78 C 7.91667 km/h
366 18-01-2020 05:00:00 4.3 C 5.77 g/m*3 2.6 C 6.975 km/h
367 18-01-2020 06:00:00 4.04167 C 5.67 g/m*3 1.92 C 8.325 km/h
368 18-01-2020 07:00:00 4.05 C 5.67 g/m*3 4.05 C 4.94167 km/h
369 18-01-2020 08:00:00 4.34167 C 5.76 g/m*3 2.73 C 6.70833 km/h
370 18-01-2020 09:00:00 4.66667 C 5.84 g/m*3 1.99 C 11.29167 km/h
371 18-01-2020 10:00:00 5.24167 C 5.97 g/m*3 3.3 C 8.475 km/h
372 18-01-2020 11:00:00 5.8 C 6.08 g/m*3 3.31 C 11.55833 km/h
373 18-01-2020 12:00:00 6.2 C 6.13 g/m*3 4.02 C 10.34167 km/h
374 18-01-2020 13:00:00 6.30833 C 6.12 g/m*3 4.37 C 9.28333 km/h
375 18-01-2020 14:00:00 6.375 C 6.07 g/m*3 4.64 C 8.45 km/h
Sensor: Nr:Datum:Temp:Abs-Feuchte:Windchill:Wind:
Aussen-T/F 376 18-01-2020 15:00:00 6.69167 C 6.06 g/m*3 4.92 C 8.86667 km/h
377 18-01-2020 16:00:00 5.825 C 5.91 g/m*3 4.75 C 5.75833 km/h
378 18-01-2020 17:00:00 4.88333 C 5.75 g/m*3 4.88 C 3.86667 km/h
379 18-01-2020 18:00:00 3.55833 C 5.47 g/m*3 3.56 C 3.20833 km/h
380 18-01-2020 19:00:00 2.825 C 5.25 g/m*3 2.83 C 0.93333 km/h
381 18-01-2020 20:00:00 1.65 C 4.98 g/m*3 1.65 C 0.93333 km/h
382 18-01-2020 21:00:00 1.725 C 5.11 g/m*3 1.73 C 1.33333 km/h
383 18-01-2020 22:00:00 2.23333 C 5.25 g/m*3 2.23 C 2.80833 km/h
384 18-01-2020 23:00:00 3.175 C 5.53 g/m*3 3.18 C 4.00833 km/h
385 19-01-2020 00:00:00 3.325 C 5.62 g/m*3 3.33 C 2.54167 km/h
386 19-01-2020 01:00:00 3.18333 C 5.61 g/m*3 3.18 C 2.41667 km/h
387 19-01-2020 02:00:00 2.83333 C 5.54 g/m*3 2.83 C 0.93333 km/h
388 19-01-2020 03:00:00 2.84167 C 5.59 g/m*3 2.84 C 0.8 km/h
389 19-01-2020 04:00:00 3.025 C 5.7 g/m*3 3.03 C 0.53333 km/h
390 19-01-2020 05:00:00 3.00833 C 5.71 g/m*3 3.01 C 0.53333 km/h
391 19-01-2020 06:00:00 3.1 C 5.75 g/m*3 3.1 C 0 km/h
392 19-01-2020 07:00:00 3.18333 C 5.78 g/m*3 3.18 C 0.8 km/h
393 19-01-2020 08:00:00 3.24167 C 5.8 g/m*3 3.24 C 1.46667 km/h
394 19-01-2020 09:00:00 3.39167 C 5.85 g/m*3 3.39 C 2.675 km/h
395 19-01-2020 10:00:00 3.64167 C 5.87 g/m*3 3.64 C 4.675 km/h
396 19-01-2020 11:00:00 4 C 5.93 g/m*3 4 C 4.14167 km/h
397 19-01-2020 12:00:00 4.29167 C 6.02 g/m*3 4.29 C 1.46667 km/h
398 19-01-2020 13:00:00 4.5 C 6.05 g/m*3 4.5 C 3.74167 km/h
399 19-01-2020 14:00:00 4.86667 C 6.12 g/m*3 4.87 C 4.15 km/h
400 19-01-2020 15:00:00 5.00833 C 6.08 g/m*3 3.91 C 5.48333 km/h
Sensor: Nr:Datum:Temp:Abs-Feuchte:Windchill:Wind:
Aussen-T/F 401 19-01-2020 16:00:00 4.975 C 6.1 g/m*3 4.97 C 3.475 km/h
402 19-01-2020 17:00:00 4.48333 C 6.1 g/m*3 4.48 C 0.66667 km/h
403 19-01-2020 18:00:00 4.23333 C 6.12 g/m*3 4.23 C 1.06667 km/h
404 19-01-2020 19:00:00 4.2 C 6.15 g/m*3 4.2 C 1.06667 km/h
405 19-01-2020 20:00:00 4.10833 C 6.13 g/m*3 4.11 C 0 km/h
406 19-01-2020 21:00:00 3.99167 C 6.1 g/m*3 3.99 C 0 km/h
407 19-01-2020 22:00:00 3.95 C 6.08 g/m*3 3.95 C 0 km/h
408 19-01-2020 23:00:00 3.45833 C 5.88 g/m*3 3.46 C 0.8 km/h
409 20-01-2020 00:00:00 3.08333 C 5.74 g/m*3 3.08 C 0.4 km/h
410 20-01-2020 01:00:00 3.21667 C 5.79 g/m*3 3.22 C 0 km/h
411 20-01-2020 02:00:00 2.8 C 5.64 g/m*3 2.8 C 0.26667 km/h
412 20-01-2020 03:00:00 2.425 C 5.5 g/m*3 2.42 C 1.2 km/h
413 20-01-2020 04:00:00 2.3 C 5.49 g/m*3 2.3 C 0.26667 km/h
414 20-01-2020 05:00:00 2.35833 C 5.51 g/m*3 2.36 C 0 km/h
415 20-01-2020 06:00:00 2.15833 C 5.45 g/m*3 2.16 C 0 km/h
416 20-01-2020 07:00:00 1.98333 C 5.38 g/m*3 1.98 C 0 km/h
417 20-01-2020 08:00:00 1.39167 C 5.16 g/m*3 1.39 C 0.13333 km/h
418 20-01-2020 09:00:00 2.36667 C 5.53 g/m*3 2.37 C 0 km/h
419 20-01-2020 10:00:00 3.39167 C 5.93 g/m*3 3.39 C 0 km/h
420 20-01-2020 11:00:00 3.89167 C 6.08 g/m*3 3.89 C 0.26667 km/h
421 20-01-2020 12:00:00 4.875 C 5.81 g/m*3 4.88 C 4.7 km/h
422 20-01-2020 13:00:00 5.61667 C 5.4 g/m*3 4.06 C 7.24167 km/h
423 20-01-2020 14:00:00 5.78333 C 5.33 g/m*3 5.78 C 4.68333 km/h
424 20-01-2020 15:00:00 5.575 C 5.35 g/m*3 5.58 C 1.2 km/h
425 20-01-2020 16:00:00 4.71667 C 5.5 g/m*3 4.72 C 0.66667 km/h
Sensor: Nr:Datum:Temp:Abs-Feuchte:Windchill:Wind:
Aussen-T/F 426 20-01-2020 17:00:00 2.59167 C 5.02 g/m*3 2.59 C 3.2 km/h
427 20-01-2020 18:00:00 1.23333 C 4.76 g/m*3 1.23 C 0.26667 km/h
428 20-01-2020 19:00:00 0.35 C 4.58 g/m*3 0.35 C 0 km/h
429 20-01-2020 20:00:00 -0.275 C 4.46 g/m*3 -0.28 C 0 km/h
430 20-01-2020 21:00:00 -0.9 C 4.28 g/m*3 -0.9 C 0 km/h
431 20-01-2020 22:00:00 -1.21667 C 4.22 g/m*3 -1.22 C 0 km/h
432 20-01-2020 23:00:00 -1.53333 C 4.14 g/m*3 -1.53 C 0 km/h
433 21-01-2020 00:00:00 -1.75833 C 4.07 g/m*3 -1.76 C 0 km/h
434 21-01-2020 01:00:00 -1.925 C 4.04 g/m*3 -1.93 C 0 km/h
435 21-01-2020 02:00:00 -2.36667 C 3.91 g/m*3 -2.37 C 0 km/h
436 21-01-2020 03:00:00 -2.6 C 3.87 g/m*3 -2.6 C 0 km/h
437 21-01-2020 04:00:00 -2.98333 C 3.76 g/m*3 -2.98 C 0.26667 km/h
438 21-01-2020 05:00:00 -3.175 C 3.71 g/m*3 -3.18 C 0 km/h
439 21-01-2020 06:00:00 -2.8 C 3.82 g/m*3 -2.8 C 0 km/h
440 21-01-2020 07:00:00 -2.55833 C 3.89 g/m*3 -2.56 C 0.4 km/h
441 21-01-2020 08:00:00 -2.74167 C 3.84 g/m*3 -2.74 C 0.93333 km/h
442 21-01-2020 09:00:00 -2.975 C 3.78 g/m*3 -2.98 C 1.73333 km/h
443 21-01-2020 10:00:00 -2.76667 C 3.83 g/m*3 -2.77 C 0.4 km/h
444 21-01-2020 11:00:00 -2.18333 C 4.03 g/m*3 -2.18 C 0 km/h
445 21-01-2020 12:00:00 -1.21667 C 4.32 g/m*3 -1.22 C 2.4 km/h
446 21-01-2020 13:00:00 -0.6 C 4.51 g/m*3 -0.6 C 3.73333 km/h
447 21-01-2020 14:00:00 -0.175 C 4.64 g/m*3 -0.18 C 1.46667 km/h
448 21-01-2020 15:00:00 0.03333 C 4.71 g/m*3 0.03 C 1.86667 km/h
449 21-01-2020 16:00:00 -0.175 C 4.64 g/m*3 -0.18 C 0.13333 km/h
450 21-01-2020 17:00:00 -0.58333 C 4.51 g/m*3 -0.58 C 0 km/h
Sensor: Nr:Datum:Temp:Abs-Feuchte:Windchill:Wind:
Aussen-T/F 451 21-01-2020 18:00:00 -1.04167 C 4.37 g/m*3 -1.04 C 0 km/h
452 21-01-2020 19:00:00 -1.3 C 4.29 g/m*3 -1.3 C 0.13333 km/h
453 21-01-2020 20:00:00 -1.45 C 4.25 g/m*3 -1.45 C 0 km/h
454 21-01-2020 21:00:00 -1.80833 C 4.14 g/m*3 -1.81 C 0 km/h
455 21-01-2020 22:00:00 -1.89167 C 4.12 g/m*3 -1.89 C 0 km/h
456 21-01-2020 23:00:00 -2.21667 C 4.03 g/m*3 -2.22 C 0 km/h
457 22-01-2020 00:00:00 -2.40833 C 3.97 g/m*3 -2.41 C 0.53333 km/h
458 22-01-2020 01:00:00 -2.63333 C 3.91 g/m*3 -2.63 C 0.4 km/h
459 22-01-2020 02:00:00 -2.775 C 3.86 g/m*3 -2.78 C 0.8 km/h
460 22-01-2020 03:00:00 -2.99167 C 3.77 g/m*3 -2.99 C 1.2 km/h
461 22-01-2020 04:00:00 -2.91667 C 3.79 g/m*3 -2.92 C 0.8 km/h
462 22-01-2020 05:00:00 -2.975 C 3.78 g/m*3 -2.98 C 0.93333 km/h
463 22-01-2020 06:00:00 -2.93333 C 3.79 g/m*3 -2.93 C 1.73333 km/h
464 22-01-2020 07:00:00 -2.71667 C 3.87 g/m*3 -2.72 C 0.4 km/h
465 22-01-2020 08:00:00 -2.41667 C 3.95 g/m*3 -2.42 C 3.075 km/h
466 22-01-2020 09:00:00 -2.29167 C 4.01 g/m*3 -2.29 C 1.46667 km/h
467 22-01-2020 10:00:00 -2.31667 C 4 g/m*3 -2.32 C 3.20833 km/h
468 22-01-2020 11:00:00 -1.75 C 4.16 g/m*3 -1.75 C 1.33333 km/h
469 22-01-2020 12:00:00 -0.925 C 4.41 g/m*3 -0.93 C 1.73333 km/h
470 22-01-2020 13:00:00 -0.43333 C 4.58 g/m*3 -0.43 C 0.8 km/h
471 22-01-2020 14:00:00 -0.16667 C 4.66 g/m*3 -0.17 C 0.13333 km/h
472 22-01-2020 15:00:00 0.09167 C 4.75 g/m*3 0.09 C 0 km/h
473 22-01-2020 16:00:00 0.28333 C 4.81 g/m*3 0.28 C 0 km/h
474 22-01-2020 17:00:00 0.3 C 4.85 g/m*3 0.3 C 0 km/h
475 22-01-2020 18:00:00 0.25833 C 4.82 g/m*3 0.26 C 0 km/h
Sensor: Nr:Datum:Temp:Abs-Feuchte:Windchill:Wind:
Aussen-T/F 476 22-01-2020 19:00:00 0.35 C 4.86 g/m*3 0.35 C 0 km/h
477 22-01-2020 20:00:00 0.55833 C 4.93 g/m*3 0.56 C 0 km/h
478 22-01-2020 21:00:00 0.66667 C 4.97 g/m*3 0.67 C 0 km/h
479 22-01-2020 22:00:00 0.725 C 4.99 g/m*3 0.73 C 0 km/h
480 22-01-2020 23:00:00 0.8 C 5.02 g/m*3 0.8 C 0 km/h
481 23-01-2020 00:00:00 0.85833 C 5.04 g/m*3 0.86 C 0 km/h
482 23-01-2020 01:00:00 0.9 C 5.05 g/m*3 0.9 C 0 km/h
483 23-01-2020 02:00:00 1 C 5.09 g/m*3 1 C 0 km/h
484 23-01-2020 03:00:00 1.1 C 5.12 g/m*3 1.1 C 0 km/h
485 23-01-2020 04:00:00 1.10833 C 5.12 g/m*3 1.11 C 0 km/h
486 23-01-2020 05:00:00 1.2 C 5.16 g/m*3 1.2 C 0 km/h
487 23-01-2020 06:00:00 1.25 C 5.17 g/m*3 1.25 C 0 km/h
488 23-01-2020 07:00:00 1.34167 C 5.21 g/m*3 1.34 C 0 km/h
489 23-01-2020 08:00:00 1.5 C 5.26 g/m*3 1.5 C 0 km/h
490 23-01-2020 09:00:00 1.70833 C 5.34 g/m*3 1.71 C 1.33333 km/h
491 23-01-2020 10:00:00 1.85833 C 5.39 g/m*3 1.86 C 1.33333 km/h
492 23-01-2020 11:00:00 2.09167 C 5.48 g/m*3 2.09 C 1.33333 km/h
493 23-01-2020 12:00:00 2.20833 C 5.52 g/m*3 2.21 C 2.66667 km/h
494 23-01-2020 13:00:00 2.40833 C 5.56 g/m*3 2.41 C 0.4 km/h
495 23-01-2020 14:00:00 2.575 C 5.58 g/m*3 2.58 C 1.46667 km/h
496 23-01-2020 15:00:00 2.65833 C 5.56 g/m*3 2.66 C 0.26667 km/h
497 23-01-2020 16:00:00 2.6 C 5.5 g/m*3 2.6 C 1.61667 km/h
498 23-01-2020 17:00:00 2.16667 C 5.33 g/m*3 2.17 C 0.26667 km/h
499 23-01-2020 18:00:00 0.575 C 4.77 g/m*3 0.57 C 0 km/h
500 23-01-2020 19:00:00 -0.09167 C 4.6 g/m*3 -0.09 C 0 km/h
Sensor: Nr:Datum:Temp:Abs-Feuchte:Windchill:Wind:
Aussen-T/F 501 23-01-2020 20:00:00 -0.59167 C 4.46 g/m*3 -0.59 C 0 km/h
502 23-01-2020 21:00:00 -0.09167 C 4.67 g/m*3 -0.09 C 0 km/h
503 23-01-2020 22:00:00 0.36667 C 4.82 g/m*3 0.37 C 0 km/h
504 23-01-2020 23:00:00 0.68333 C 4.93 g/m*3 0.68 C 0 km/h

Maximal/Minimal-Werte vom 03.01.2020 - 23.01.2020

Sensor Min Max Avg
Temp
(Aussen-T/F)
-3.3 °C
21-01-2020  05:25:00
13.4 °C
09-01-2020  13:35:00
5.46 °C
Abs-Feuchte
(Aussen-T/F)
3.71 g/m*3
21-01-2020  05:00:00
10.1 g/m*3
09-01-2020  13:00:00
6.45 g/m*3
Windchill
(Aussen-T/F)
-3.18 C
21-01-2020  05:00:00
13.33 C
09-01-2020  13:00:00
5.01 C

Die Daten stammen von einer Davis Vantage Pro 2 Wetter-Station und werden unter Linux mit der Software wview2wettercgi und aufbereitet. Alle Angaben erfolgen ohne Gewähr für ihre Vollständigkeit oder Richtigkeit.
Kontakt: Rainer Krienke krienke@uni-koblenz.de . Meine Webseiten an der Uni Koblenz oder privat.
Version: $Revision: 0.78 $